Wind_Speed
8 8 11 13 16 19 22 25 28 30 33 35 36 35 32 32 32 25 20 19 18 16 17 19 20 22 25 28 33 36 39 42 44 40 37 37 36 33 34 35 34 37 38 35 35
11 13 15 17 20 23 26 28 32 34 37 40 41 39 33 32 33 26 23 20 18 17 16 18 20 24 28 29 31 36 38 40 49 48 44 41 39 38 38 36 36 37 38 36 35
15 16 19 20 23 25 29 32 36 38 41 43 44 41 34 34 33 25 25 21 19 19 20 20 20 24 30 33 35 37 40 39 42 50 51 49 45 42 43 43 38 36 38 37 36
18 20 22 23 26 29 33 35 37 39 42 43 40 42 40 31 30 27 27 26 23 21 21 23 26 29 33 35 37 40 44 46 43 49 53 53 51 49 47 45 43 41 38 38 37
21 24 25 27 29 31 34 36 39 43 45 44 46 48 39 30 29 29 27 26 23 23 25 28 29 30 34 37 40 43 44 48 47 48 53 58 53 51 48 47 47 43 40 40 40
25 26 27 30 31 33 35 38 42 47 49 50 48 46 40 30 30 29 27 25 26 26 27 30 34 37 39 42 45 47 48 50 49 50 52 58 56 49 46 49 44 43 46 42 44
29 30 30 33 34 35 37 41 46 50 54 52 46 43 38 29 28 27 26 26 27 31 34 37 38 40 43 45 46 50 52 55 51 52 53 55 55 48 46 48 45 47 44 43 48
32 33 33 35 36 37 39 43 47 55 53 48 42 40 38 32 28 28 29 29 32 34 36 39 41 45 47 49 50 52 56 60 54 53 57 54 57 53 54 53 50 49 52 53 51
36 37 36 37 37 39 43 48 52 53 48 48 45 42 40 36 31 29 30 31 33 38 40 41 44 48 52 53 52 54 59 60 56 54 58 57 60 54 53 57 56 57 54 54 55
39 40 39 39 41 43 48 50 53 52 50 45 45 41 37 35 31 31 31 31 34 38 42 44 48 52 55 56 58 60 61 62 58 55 59 59 65 61 56 62 63 62 60 57 54
41 42 42 43 45 48 51 54 53 52 46 42 40 38 34 36 36 37 37 40 41 45 48 46 49 52 57 59 63 63 60 60 59 60 66 66 69 65 62 63 63 66 64 65 64
43 43 43 44 47 53 57 59 59 59 54 50 39 39 40 36 36 38 41 43 46 48 50 50 56 60 62 60 65 63 64 64 65 64 71 71 70 69 67 69 69 69 74 73 72
45 44 44 44 49 56 60 61 56 57 55 49 54 45 42 40 40 41 43 45 48 49 53 56 59 60 62 66 68 67 68 68 69 69 68 81 80 79 70 75 76 77 79 81 81
45 44 44 47 51 58 62 59 55 55 56 58 54 55 50 49 48 47 49 50 53 55 59 59 62 63 64 65 67 67 66 68 73 78 81 79 93 85 82 82 80 81 86 84 83
47 46 47 50 55 62 66 60 56 55 57 55 57 56 58 54 53 52 51 53 55 55 58 59 64 66 65 67 68 67 69 74 76 80 86 83 95 90 90 88 92 93 89 87 81
50 50 52 55 58 64 66 60 56 58 60 60 60 60 60 60 59 58 57 59 62 62 63 63 66 67 69 70 72 74 76 75 79 83 87 89 93 94 94 99 99 93 85 80 61
51 52 55 59 60 62 64 59 59 58 58 61 63 64 64 62 61 61 61 63 62 65 66 68 67 70 73 73 73 73 79 83 87 87 88 90 94 98 102 100 93 95 93 87 82
53 54 55 59 62 63 65 62 59 58 61 63 66 63 66 62 61 62 62 64 65 67 68 70 69 72 75 73 77 78 80 83 84 88 96 89 100 101 102 97 92 90 86 77 74
55 57 59 61 66 66 68 65 62 63 66 71 69 69 67 61 60 61 63 64 63 65 66 69 68 71 69 72 77 81 82 82 86 90 94 98 103 100 99 97 93 89 84 80 76
60 58 62 67 69 70 71 66 66 69 72 75 69 65 64 61 59 60 62 62 63 65 68 68 71 71 71 74 78 79 84 84 87 93 94 100 102 101 98 97 92 90 84 80 76
62 63 63 69 70 71 69 67 71 74 76 73 69 66 63 61 62 63 64 63 64 67 67 69 72 71 74 76 80 82 83 84 83 84 87 92 100 97 94 93 87 85 76 72 70
66 68 70 70 71 69 69 71 75 78 74 70 64 60 58 61 62 63 66 64 64 66 68 71 77 77 75 79 82 84 82 78 76 81 86 86 104 91 90 87 83 75 74 67 58
71 72 74 75 77 76 76 78 79 78 67 65 62 61 62 60 62 65 64 64 65 68 71 74 78 81 79 78 79 77 77 72 75 81 85 91 97 89 86 85 75 74 71 56 47
75 79 79 79 77 78 80 80 79 77 67 62 61 60 60 61 62 66 66 67 68 70 74 75 75 73 77 77 78 80 71 66 70 77 83 85 94 87 85 77 74 69 63 50 50
81 81 80 84 84 82 82 82 82 76 70 64 66 64 62 64 66 67 69 71 69 69 72 73 73 71 75 74 76 76 67 66 72 74 81 85 87 80 78 73 73 64 53 52 54
82 84 86 89 87 88 85 76 72 71 74 72 67 62 63 64 63 66 70 71 70 69 69 70 65 70 72 71 71 69 64 66 70 76 76 78 80 72 72 67 60 53 59 61 59
88 90 89 87 87 88 81 77 74 75 69 63 60 61 61 63 67 70 70 69 70 68 67 63 66 68 71 67 67 65 60 67 73 70 70 75 76 72 71 70 57 58 60 57 59
Wind_Direction
287 288 294 304 310 315 323 326 328 330 330 331 331 331 325 326 331 324 313 304 307 313 309 295 293 305 318 324 326 328 331 333 331 329 329 330 335 337 336 336 334 339 341 341 341
284 293 300 307 313 317 319 323 324 325 327 329 329 327 322 323 329 323 316 305 303 309 313 318 306 306 313 317 317 322 324 330 328 326 324 324 327 332 333 330 333 335 333 335 333
287 293 299 308 314 316 315 317 319 324 327 329 327 325 323 322 324 316 313 302 306 304 314 322 311 307 315 319 317 316 321 323 323 322 320 319 321 323 325 326 323 328 328 329 327
291 297 303 309 312 313 311 315 319 323 325 327 330 330 319 318 319 313 310 304 298 297 308 316 314 316 315 316 320 320 324 324 321 320 317 314 316 319 323 324 321 319 321 322 321
294 299 304 307 308 308 312 316 319 322 324 327 328 327 319 309 310 306 304 297 296 298 306 314 316 315 312 313 318 322 321 320 318 317 318 314 315 318 319 317 320 317 317 313 313
292 297 301 301 302 309 313 315 318 321 322 322 323 325 324 305 307 304 300 296 293 299 310 316 317 314 312 317 321 322 325 325 323 320 318 318 319 323 317 318 324 316 314 314 310
290 293 297 298 304 308 313 316 317 320 323 324 321 322 322 319 313 309 303 296 296 301 306 313 314 313 315 318 319 321 325 326 325 321 315 317 322 324 319 319 323 320 316 312 305
287 291 294 297 304 308 311 315 319 321 323 324 323 322 322 323 321 319 313 308 304 302 307 311 313 313 315 316 317 321 321 323 322 318 313 312 321 322 317 315 320 316 313 311 311
288 290 293 298 304 307 310 312 315 317 321 321 323 319 317 317 313 313 313 305 301 301 304 309 313 316 316 315 317 317 319 318 319 315 309 311 314 318 315 313 317 315 312 310 306
286 290 294 299 301 303 308 311 314 317 320 319 317 313 310 313 306 308 309 303 302 302 309 315 317 317 316 316 317 317 317 317 318 316 310 312 313 316 314 311 314 313 312 308 301
287 291 297 300 301 305 310 312 310 308 313 317 318 314 312 314 307 304 303 303 304 308 311 316 313 314 315 318 319 317 316 316 315 316 313 312 311 315 314 313 313 314 312 305 303
288 292 296 300 307 310 310 312 310 312 316 319 322 316 314 310 312 310 305 308 308 307 308 312 313 315 318 320 318 319 315 317 316 315 313 309 310 316 320 315 316 313 308 307 305
289 293 296 300 310 314 313 312 306 307 314 315 318 319 319 314 309 310 309 306 305 307 308 312 315 316 316 318 316 317 317 317 316 314 314 311 313 316 319 315 315 311 311 307 304
289 291 295 306 309 312 312 311 307 306 310 313 314 317 317 317 317 313 310 308 306 305 309 315 315 316 317 317 315 315 316 317 317 318 316 318 313 323 317 317 313 308 307 302 297
289 289 294 300 303 308 310 304 305 307 309 310 314 315 313 313 311 315 316 315 312 313 313 315 314 314 315 315 315 316 317 318 317 316 316 321 315 320 319 317 312 311 305 300 291
288 291 291 300 302 308 310 302 302 307 306 310 311 311 311 311 310 311 312 312 310 311 312 312 313 315 315 314 318 320 316 314 313 314 317 320 315 321 318 316 315 311 306 301 294
286 290 291 297 303 307 309 307 304 306 306 308 310 311 310 308 306 305 306 308 308 308 309 310 308 309 313 315 316 315 313 313 314 317 318 319 316 319 319 316 312 308 305 302 300
286 287 291 295 300 302 305 307 304 306 308 310 310 308 311 310 307 306 306 306 307 307 308 307 308 312 312 315 315 315 315 316 317 317 317 318 318 320 315 311 309 304 306 306 299
283 285 291 294 297 298 301 302 302 305 306 308 308 305 310 310 306 306 307 308 309 307 307 307 309 311 313 313 313 315 316 316 314 317 314 317 319 319 313 313 311 312 313 311 308
279 283 287 292 294 294 297 299 301 303 304 306 306 305 307 308 307 307 306 309 308 307 307 309 309 309 312 314 313 313 315 315 318 316 314 317 322 316 319 317 314 316 316 313 309
278 281 285 292 290 291 294 296 299 301 304 305 303 302 303 305 304 305 305 307 307 306 307 309 308 311 314 313 313 314 314 316 317 313 310 312 326 320 317 317 316 315 316 318 315
278 279 284 289 291 291 294 298 301 302 304 301 302 301 304 306 303 302 305 305 304 304 307 308 309 311 314 313 313 315 317 320 313 314 314 312 321 320 317 314 315 319 323 323 324
276 279 283 287 290 291 293 297 299 301 299 299 297 298 300 303 301 303 304 302 302 303 305 308 310 312 313 311 313 314 315 318 313 314 317 311 317 315 316 316 322 320 318 325 326
277 279 282 287 289 290 293 294 296 299 292 294 294 297 300 300 300 301 301 301 301 302 303 306 308 309 309 311 313 313 319 315 314 311 312 319 313 319 319 320 320 319 315 324 323
276 280 282 286 289 290 291 292 293 293 289 289 291 294 295 297 299 298 299 300 300 300 302 303 304 305 306 311 312 316 320 320 316 314 316 321 317 318 318 320 320 318 324 320 318
275 278 281 286 288 288 290 293 290 283 283 286 289 291 293 296 295 296 297 297 298 299 300 300 302 302 307 311 314 317 319 316 313 319 324 315 314 317 316 322 317 314 321 319 318
275 276 278 281 284 287 289 286 285 287 284 284 288 291 292 292 294 294 295 296 297 298 297 299 301 306 310 312 315 317 318 314 320 324 321 317 320 322 326 327 318 316 318 319 317
Height
5900 5900 5899 5898 5896 5895 5893 5892 5890 5888 5885 5882 5879 5876 5871 5868 5864 5862 5859 5858 5855 5853 5850 5848 5846 5843 5841 5839 5834 5830 5828 5823 5818 5815 5812 5809 5806 5802 5798 5795 5791 5787 5782 5777 5772
5899 5899 5898 5897 5895 5893 5891 5890 5887 5886 5883 5879 5875 5873 5869 5865 5862 5858 5856 5854 5852 5849 5847 5845 5843 5840 5838 5837 5834 5829 5826 5823 5814 5809 5807 5804 5801 5799 5795 5791 5786 5782 5778 5774 5768
5897 5897 5896 5895 5893 5891 5888 5888 5884 5882 5879 5875 5872 5868 5864 5861 5858 5855 5852 5850 5848 5846 5844 5843 5840 5837 5834 5831 5829 5826 5823 5819 5814 5805 5799 5798 5796 5793 5790 5786 5781 5779 5774 5767 5763
5896 5895 5894 5892 5890 5889 5885 5884 5881 5878 5876 5872 5868 5863 5859 5857 5854 5850 5848 5846 5843 5841 5840 5839 5836 5834 5830 5827 5824 5822 5818 5815 5813 5804 5796 5790 5791 5790 5784 5779 5776 5772 5767 5762 5757
5893 5892 5890 5888 5887 5885 5882 5880 5877 5874 5871 5867 5863 5858 5853 5852 5850 5846 5844 5842 5840 5837 5836 5834 5831 5828 5825 5822 5820 5816 5814 5809 5808 5802 5792 5781 5782 5783 5779 5772 5769 5764 5761 5755 5749
5890 5888 5887 5885 5883 5881 5879 5875 5872 5869 5865 5862 5858 5853 5848 5846 5844 5841 5839 5837 5835 5832 5830 5828 5825 5822 5819 5817 5813 5809 5807 5803 5802 5796 5787 5777 5776 5777 5773 5767 5763 5758 5754 5747 5738
5886 5885 5883 5881 5879 5877 5874 5871 5867 5864 5861 5856 5852 5847 5843 5841 5837 5835 5834 5832 5830 5827 5824 5823 5820 5816 5812 5808 5804 5800 5798 5793 5793 5789 5780 5776 5774 5772 5765 5759 5758 5752 5744 5738 5728
5881 5879 5880 5878 5876 5873 5870 5866 5862 5858 5856 5851 5847 5842 5839 5836 5833 5830 5829 5827 5824 5821 5818 5817 5814 5809 5804 5800 5796 5792 5788 5784 5784 5779 5771 5770 5767 5770 5757 5750 5751 5744 5735 5726 5720
5877 5875 5875 5873 5871 5868 5865 5861 5858 5854 5851 5846 5842 5837 5834 5831 5829 5826 5824 5821 5817 5814 5813 5809 5805 5799 5795 5790 5787 5782 5780 5776 5776 5768 5761 5759 5756 5762 5751 5742 5739 5731 5724 5716 5708
5872 5871 5869 5868 5865 5862 5859 5856 5852 5849 5847 5842 5839 5835 5830 5826 5824 5821 5818 5815 5812 5807 5805 5801 5796 5789 5784 5779 5775 5771 5769 5765 5760 5757 5749 5750 5744 5745 5744 5733 5726 5715 5710 5702 5692
5867 5865 5863 5861 5859 5855 5854 5851 5849 5847 5845 5839 5834 5828 5825 5822 5818 5815 5811 5807 5803 5799 5794 5790 5786 5778 5772 5767 5762 5757 5754 5752 5752 5741 5732 5730 5731 5734 5731 5725 5714 5699 5690 5686 5678
5861 5859 5857 5855 5851 5847 5843 5839 5835 5830 5828 5825 5826 5823 5819 5816 5812 5808 5803 5799 5793 5789 5785 5783 5775 5768 5761 5754 5750 5743 5740 5737 5738 5734 5717 5711 5718 5721 5718 5704 5697 5682 5674 5668 5661
5854 5852 5850 5848 5845 5841 5835 5830 5826 5822 5822 5817 5815 5813 5811 5809 5804 5800 5796 5790 5786 5782 5777 5774 5766 5757 5751 5744 5737 5730 5724 5721 5712 5716 5722 5678 5694 5700 5708 5691 5682 5661 5653 5641 5635
5847 5845 5843 5841 5838 5832 5828 5824 5819 5815 5812 5811 5806 5803 5801 5797 5794 5788 5783 5781 5776 5772 5767 5762 5753 5745 5738 5731 5723 5718 5711 5704 5695 5686 5681 5687 5647 5680 5673 5666 5660 5646 5635 5624 5614
5840 5838 5835 5831 5829 5825 5821 5816 5812 5809 5804 5802 5798 5795 5790 5788 5785 5780 5774 5769 5765 5761 5755 5750 5742 5735 5727 5718 5710 5705 5696 5689 5681 5672 5662 5674 5640 5647 5640 5633 5625 5613 5604 5590 5576
5831 5830 5827 5824 5821 5818 5813 5807 5804 5803 5796 5792 5789 5785 5781 5777 5773 5766 5762 5756 5752 5749 5744 5739 5732 5723 5716 5706 5695 5683 5675 5676 5671 5660 5660 5651 5628 5627 5614 5599 5586 5575 5560 5553 5545
5822 5820 5818 5815 5813 5809 5805 5799 5795 5792 5789 5783 5779 5774 5769 5766 5761 5756 5751 5746 5743 5736 5733 5730 5723 5716 5705 5695 5683 5675 5657 5645 5649 5643 5645 5633 5611 5604 5583 5573 5561 5549 5540 5531 5520
5812 5811 5808 5805 5803 5799 5795 5791 5786 5784 5778 5774 5769 5765 5758 5755 5750 5744 5739 5733 5729 5722 5718 5717 5714 5702 5690 5682 5666 5660 5646 5629 5619 5622 5611 5620 5599 5596 5572 5551 5541 5533 5524 5517 5505
5801 5800 5799 5795 5792 5789 5786 5781 5778 5773 5769 5763 5757 5751 5747 5743 5738 5733 5727 5722 5717 5709 5703 5700 5706 5690 5684 5673 5663 5646 5638 5623 5603 5603 5588 5591 5586 5573 5549 5531 5513 5505 5499 5486 5478
5788 5787 5788 5784 5781 5778 5774 5772 5767 5762 5757 5752 5747 5742 5736 5732 5725 5720 5713 5709 5703 5696 5688 5684 5684 5680 5673 5662 5649 5636 5626 5615 5602 5567 5551 5564 5556 5532 5524 5510 5491 5480 5471 5461 5453
5775 5773 5774 5772 5768 5765 5761 5759 5754 5749 5746 5741 5735 5729 5725 5721 5714 5707 5701 5698 5690 5682 5676 5667 5665 5674 5660 5649 5637 5625 5610 5598 5596 5576 5546 5529 5543 5518 5504 5490 5470 5463 5453 5443 5432
5761 5759 5760 5757 5754 5750 5749 5745 5742 5736 5732 5727 5722 5716 5712 5708 5701 5694 5689 5685 5678 5669 5664 5658 5645 5647 5649 5634 5621 5610 5594 5580 5560 5553 5545 5519 5507 5505 5489 5475 5462 5447 5436 5430 5420
5744 5744 5744 5743 5739 5738 5735 5731 5726 5724 5718 5712 5707 5703 5699 5693 5686 5680 5678 5674 5668 5659 5650 5643 5635 5624 5627 5619 5603 5599 5594 5579 5548 5528 5525 5500 5487 5481 5477 5458 5448 5434 5424 5421 5413
5730 5727 5729 5728 5726 5724 5719 5716 5712 5709 5704 5698 5695 5690 5686 5681 5675 5667 5664 5659 5654 5648 5637 5628 5625 5615 5599 5592 5580 5576 5582 5568 5545 5524 5509 5508 5470 5468 5456 5442 5432 5426 5415 5413 5405
5716 5714 5713 5711 5709 5705 5702 5699 5696 5692 5688 5685 5680 5679 5672 5667 5663 5654 5649 5641 5636 5629 5619 5614 5609 5603 5593 5584 5571 5559 5552 5545 5529 5514 5499 5482 5464 5454 5443 5432 5418 5410 5407 5401 5393
5701 5701 5699 5696 5694 5690 5686 5684 5680 5674 5672 5670 5666 5663 5658 5653 5648 5641 5635 5627 5620 5612 5604 5595 5591 5586 5585 5574 5560 5552 5540 5528 5519 5505 5494 5474 5459 5452 5439 5430 5413 5403 5397 5388 5380
5683 5682 5683 5678 5676 5673 5671 5668 5664 5658 5656 5654 5651 5647 5644 5638 5634 5627 5620 5611 5602 5598 5587 5580 5571 5569 5571 5560 5555 5540 5531 5516 5510 5500 5479 5456 5444 5429 5417 5411 5402 5392 5385 5374 5366